DateTimeUTC,F1_A11,F1_S11,BsB_S11,BsG_S11,BsR_S11,BbsB_S11,BbsG_S11,BbsR_S11,BaB_A11,BaG_A11,BaR_A11,Tu_S11,T_S11,Uu_S11,U_S11,P_S11,T1_A11
2021-01-29T13:00:00Z,00000200,21000000,,,,,,,0000.32,0000.59,0000.58,16.1,23.8,,00.0,0636.8,30.9
2021-01-29T13:01:00Z,00000200,21000000,,,,,,,0000.62,0000.44,0000.30,16.1,23.8,,00.0,0636.8,30.9
2021-01-29T13:02:00Z,00000200,21000000,,,,,,,0000.24,0000.24,0000.13,16.1,23.8,,00.0,0636.8,30.9
2021-01-29T13:03:00Z,00000200,61000000,,,,,,,0000.67,0000.49,0000.69,16.1,23.8,,00.0,0636.8,30.9
2021-01-29T13:04:00Z,00000200,41000000,0000.49,0000.03,0000.07,0000.40,-000.06,-000.02,-000.06,-000.07,-000.30,16.4,23.6,,00.0,0637.6,31.0
2021-01-29T13:05:00Z,00000200,01000000,0000.16,-000.03,-000.09,-000.02,-000.18,-000.15,0000.50,0000.65,0000.60,16.6,23.6,,00.0,0637.6,31.0
2021-01-29T13:06:00Z,00000200,01000000,0000.66,0000.25,0000.16,0000.40,-000.20,-000.03,-000.22,0000.01,-000.38,16.7,23.6,,00.0,0637.7,31.0
2021-01-29T13:07:00Z,00000200,01000000,0000.28,0000.03,0000.02,0000.06,0000.06,0000.05,0000.59,0000.36,0000.20,16.7,23.7,,00.0,0637.7,31.0
2021-01-29T13:08:00Z,00000200,01000000,0000.43,0000.16,0000.01,0000.64,-000.11,0000.16,0000.06,0000.05,0000.37,16.8,23.7,,00.0,0637.7,31.0
2021-01-29T13:09:00Z,00000200,01000000,-000.03,0000.32,0000.05,-000.02,0000.00,-000.09,-000.11,0000.03,0000.07,16.9,23.7,,00.0,0637.7,31.0
2021-01-29T13:10:00Z,00000200,01000000,-000.38,0000.02,0000.05,-000.10,-000.10,-000.06,-000.26,-000.09,-000.05,17.0,23.8,,00.0,0637.7,31.0
2021-01-29T13:11:00Z,00000200,01000000,0000.30,0000.14,-000.01,0000.75,-000.07,-000.07,0000.23,-000.16,-000.04,17.1,23.8,,00.0,0637.8,31.0
2021-01-29T13:12:00Z,00000200,01000000,0000.42,0000.06,-000.16,-000.38,-000.21,-000.26,0000.07,0000.51,-000.07,17.1,23.8,,00.0,0637.8,31.0
2021-01-29T13:13:00Z,00000200,01000000,0000.56,0000.12,-000.02,-000.05,-000.01,-000.06,-000.01,0000.20,0000.22,17.2,23.9,,00.0,0637.8,31.0
2021-01-29T13:14:00Z,00000200,01000000,0000.23,0000.07,-000.11,-000.47,-000.21,0000.17,-000.01,-000.30,0000.10,17.2,23.9,,00.0,0637.8,31.1
2021-01-29T13:15:00Z,00000200,01000000,0000.32,0000.07,0000.16,0000.10,-000.08,0000.26,0000.65,0000.06,0000.12,17.3,23.9,,00.0,0637.8,31.0
2021-01-29T13:16:00Z,00000200,01000000,0000.34,-000.12,-000.03,0000.41,0000.08,0000.24,-000.00,0000.14,0000.20,17.3,24.0,,00.0,0637.8,31.1
2021-01-29T13:17:00Z,00000200,01000000,0000.12,0000.26,0000.11,0000.42,-000.12,0000.00,0000.33,0000.37,-000.22,17.4,24.0,,00.0,0637.9,31.1
2021-01-29T13:18:00Z,00000200,01000000,0000.20,0000.08,-000.15,0000.06,-000.19,0000.11,-000.04,0000.17,0000.43,17.4,24.1,,00.0,0637.9,31.1
2021-01-29T13:19:00Z,00000200,01000000,0000.25,-000.17,-000.13,-000.36,-000.19,-000.34,0000.39,0000.29,0000.00,17.5,24.1,,00.0,0637.9,31.0
2021-01-29T13:20:00Z,00000200,01000000,0000.23,0000.21,0000.11,0000.02,-000.06,-000.07,0000.33,0000.25,0000.04,17.6,24.1,,00.0,0637.9,31.1
2021-01-29T13:21:00Z,00000200,01000000,0000.53,0000.05,0000.02,-000.41,0000.03,0000.09,-000.23,0000.25,0000.43,17.7,24.2,,00.0,0637.9,31.1
2021-01-29T13:22:00Z,00000200,01000000,0000.33,-000.01,-000.03,0000.38,-000.26,-000.01,0000.49,0000.07,0000.11,17.7,24.2,,00.0,0637.9,31.1
2021-01-29T13:23:00Z,00000200,01000000,-000.25,0000.05,0000.12,0000.33,-000.19,-000.28,-000.05,0000.07,-000.14,17.8,24.3,,00.0,0637.9,31.1
2021-01-29T13:24:00Z,00000200,01000000,-000.10,0000.43,0000.40,0000.64,-000.23,0000.07,0000.22,-000.31,0000.13,17.8,24.3,,00.0,0637.9,31.0
2021-01-29T13:25:00Z,00000200,01000000,0000.53,0000.03,0000.23,0000.20,-000.18,-000.06,-000.00,0000.06,-000.55,17.8,24.3,,00.0,0637.9,31.0
2021-01-29T13:26:00Z,00000200,01000000,0000.32,0000.44,0000.17,0000.47,0000.01,0000.05,0000.45,0000.22,0000.74,17.7,24.3,,00.0,0637.9,31.0
2021-01-29T13:27:00Z,00000200,01000000,0000.13,0000.23,0000.21,0000.11,0000.13,-000.29,-000.37,-000.01,-000.09,17.7,24.2,,00.0,0637.9,31.0
2021-01-29T13:28:00Z,00000200,01000000,0000.09,0000.15,0000.14,0000.32,-000.16,-000.10,0000.34,0000.28,-000.02,17.6,24.2,,00.0,0638.0,31.0
2021-01-29T13:29:00Z,00000200,01000000,0000.32,0000.04,0000.02,0000.08,-000.01,-000.05,0000.58,0000.04,0000.15,17.5,24.2,,00.0,0638.0,31.0
2021-01-29T13:30:00Z,00000200,01000000,0000.32,-000.01,0000.23,0000.53,-000.29,-000.00,0000.07,0000.51,0000.29,17.5,24.2,,00.0,0638.0,31.0
2021-01-29T13:31:00Z,00000200,01000000,0000.56,0000.13,-000.32,0000.27,-000.16,0000.03,0000.44,0000.07,0000.45,17.4,24.2,,00.0,0638.0,31.0
2021-01-29T13:32:00Z,00000200,01000000,0000.09,0000.23,0000.06,0000.30,-000.16,-000.05,0000.17,0000.69,0000.22,17.5,24.2,,00.0,0638.0,31.0
2021-01-29T13:33:00Z,00000200,01000000,0000.39,0000.16,0000.21,-000.11,-000.21,0000.12,0000.42,0000.17,-000.03,17.5,24.2,,00.0,0638.0,31.0
2021-01-29T13:34:00Z,00000200,01000000,0000.24,-000.02,-000.14,0000.35,-000.05,0000.17,0000.10,0000.19,0000.13,17.5,24.3,,00.0,0638.1,31.0
2021-01-29T13:35:00Z,00000200,01000000,0000.49,0000.31,0000.20,0000.08,0000.02,-000.18,-000.75,-000.51,-000.15,17.6,24.3,,00.0,0638.0,31.0
2021-01-29T13:36:00Z,00000200,01000000,0000.36,-000.16,0000.11,-000.03,0000.00,-000.03,0000.15,0000.10,-000.24,17.7,24.3,,00.0,0638.0,31.0
2021-01-29T13:37:00Z,00000200,01000000,0000.61,-000.18,0000.09,-000.07,-000.34,0000.18,-000.14,0000.01,0000.28,17.7,24.3,,00.0,0638.1,31.0
2021-01-29T13:38:00Z,00000200,01000000,0000.36,0000.19,0000.16,-000.02,-000.22,-000.18,-000.26,-000.07,0000.12,17.7,24.4,,00.0,0638.1,31.0
2021-01-29T13:39:00Z,00000200,01000000,-000.16,0000.12,0000.01,-000.10,0000.09,-000.10,-000.01,-000.63,-000.43,17.7,24.4,,00.0,0638.2,31.0
2021-01-29T13:40:00Z,00000200,01000000,0000.90,0000.23,-000.07,-000.20,-000.15,-000.10,0000.09,0000.23,-000.09,17.6,24.3,,00.0,0638.2,31.0
2021-01-29T13:41:00Z,00000200,01000000,0000.69,-000.05,-000.12,0000.06,0000.06,-000.06,0000.13,-000.02,0000.02,17.6,24.3,,00.0,0638.3,31.0
2021-01-29T13:42:00Z,00000200,01000000,0001.16,-000.19,0000.03,0000.06,0000.02,0000.11,-000.52,-000.58,-000.22,17.5,24.3,,00.0,0638.3,31.0
2021-01-29T13:43:00Z,00000200,01000000,0000.15,0000.01,0000.10,0000.07,-000.09,-000.11,-000.24,-000.03,-000.04,17.4,24.3,,00.0,0638.4,31.0
2021-01-29T13:44:00Z,00000200,01000000,0000.58,0000.06,-000.14,0000.38,0000.18,-000.10,0000.15,0000.15,-000.26,17.4,24.2,,00.0,0638.4,31.0
2021-01-29T13:45:00Z,00000200,01000000,0000.58,-000.11,0000.14,0000.35,-000.15,-000.08,-000.54,-000.55,0000.01,17.3,24.2,,00.0,0638.4,31.0
2021-01-29T13:46:00Z,00000200,01000000,0000.16,0000.13,-000.00,0000.35,-000.04,-000.14,0000.00,-000.37,-000.10,17.3,24.2,,00.0,0638.4,31.0
2021-01-29T13:47:00Z,00000200,01000000,0000.06,-000.04,0000.06,0000.30,-000.01,-000.18,-000.36,0000.20,-000.51,17.3,24.2,,00.0,0638.4,31.0
2021-01-29T13:48:00Z,00000200,01000000,0000.19,-000.04,0000.17,-000.12,0000.16,0000.03,-000.20,-000.14,0000.46,17.3,24.2,,00.0,0638.4,31.0
2021-01-29T13:49:00Z,00000200,01000000,0000.40,0000.05,0000.40,0000.21,-000.15,0000.15,0000.05,-000.12,0000.11,17.4,24.2,,00.0,0638.4,31.0
2021-01-29T13:50:00Z,00000200,01000000,0000.75,0000.14,0000.01,0000.35,0000.05,0000.14,-000.20,-000.38,-000.47,17.4,24.3,,00.0,0638.4,31.0
2021-01-29T13:51:00Z,00000200,01000000,0000.61,0000.24,-000.05,-000.18,-000.18,-000.02,-000.44,-000.30,-000.17,17.5,24.3,,00.0,0638.4,31.0
2021-01-29T13:52:00Z,00000200,01000000,0000.51,0000.36,-000.16,0000.10,-000.25,-000.14,0000.23,0000.41,0000.31,17.5,24.3,,00.0,0638.4,31.0
2021-01-29T13:53:00Z,00000200,01000000,-000.14,0000.14,-000.11,0000.52,-000.15,-000.00,-000.14,-000.30,-000.01,17.4,24.3,,00.0,0638.4,31.0
2021-01-29T13:54:00Z,00000200,01000000,0000.15,0000.47,0000.04,0000.09,-000.27,-000.26,0000.34,-000.13,0000.05,17.4,24.2,,00.0,0638.3,31.0
2021-01-29T13:55:00Z,00000200,01000000,0000.09,0000.11,0000.32,0000.65,-000.15,-000.02,0000.39,0000.53,0000.07,17.3,24.2,,00.0,0638.3,30.9
2021-01-29T13:56:00Z,00000200,01000000,0000.03,0000.19,-000.05,0000.40,0000.09,-000.49,-000.28,0000.08,0000.23,17.2,24.1,,00.0,0638.2,30.9
2021-01-29T13:57:00Z,00000200,41000000,,,,,,,0001.83,0001.58,0001.19,17.2,24.1,,00.0,0638.3,30.9
2021-01-29T13:58:00Z,00000200,61000000,,,,,,,-000.29,-000.36,-000.54,16.6,24.2,,00.0,0637.3,30.9
2021-01-29T13:59:00Z,00000200,21000000,,,,,,,-000.74,-000.62,-000.21,16.6,24.3,,00.0,0637.2,30.9
